Tracking 30072 objects as of 14-Jan-2025
HD Live streaming from Space Station
objects crossing your sky now

ONEWEB-0226

Track ONEWEB-0226 now!
10-day predictions
ONEWEB-0226 is classified as:


NORAD ID: 48793
Int'l Code: 2021-045AC
Perigee: 1,207.9 km
Apogee: 1,209.9 km
Inclination: 87.9 °
Period: 109.5 minutes
Semi major axis: 7579 km
RCS: Unknown
Launch date: May 28, 2021
Source: United Kingdom (UK)
Launch site: VOSTOCHNY COSMODROME (VOSTO)
Your satellite tracking list
Your tracking list is empty




NASA's NSSDC Master Catalog

Two Line Element Set (TLE):
1 48793U 21045AC  25014.49178625  .00000194  00000-0  48231-3 0  9992
2 48793  87.9074   2.4785 0001351  93.7392 266.3892 13.15546887177275
Source of the keplerian elements: AFSPC